Regional Weather Roundup
Issued by NWS

Home | Current Version | Previous Version | Graphics & Text | Print | Product List | Glossary On
Versions: 1 2 3 4 5 6 7 8 9 10 11 12 13 14 15 16 17 18 19 20 21 22 23 24 25 26 27 28 29 30 31 32 33 34 35 36 37 38 39 40 41 42 43 44 45 46 47 48 49 50
000
ASUS43 KTOP 301559
RWRKS

WEATHER ROUNDUP FOR KANSAS
NATIONAL WEATHER SERVICE GOODLAND KS
1100 AM CDT THU OCT 30 2014

NOTE:  "FAIR" INDICATES FEW OR NO CLOUDS BELOW 12,000 FEET WITH NO
SIGNIFICANT WEATHER AND/OR OBSTRUCTIONS TO VISIBILITY.

KSZ001>006-013>018-027>032-041>047-301700-
NORTHWEST KANSAS

CITY           SKY/WX    TMP DP  RH WIND       PRES   REMARKS
GOODLAND       SUNNY     55  29  36 N16G24    30.33R
HAYS           SUNNY     61  34  36 NW15      30.22S
HILL CITY      LGT RAIN  58  31  35 NW15      30.25R
RUSSELL        SUNNY     61  34  36 NW20      30.19R
$$

KSZ061>065-074>080-084>089-301700-
SOUTHWEST KANSAS

CITY           SKY/WX    TMP DP  RH WIND       PRES   REMARKS
DODGE CITY     SUNNY     60  30  32 N13       30.25R
ELKHART          N/A     58  28  32 N9          N/A
GARDEN CITY    SUNNY     59  33  37 N13       30.27R
GREAT BEND     SUNNY     61  36  39 N17       30.21R
LIBERAL        SUNNY     61  36  39 N14       30.29R
$$

KSZ066>073-081>083-090>101-301700-
SOUTHEAST KANSAS

CITY           SKY/WX    TMP DP  RH WIND       PRES   REMARKS
CHANUTE        SUNNY     62  42  47 NW13      30.06R
COFFEYVILLE    SUNNY     63  44  50 W15G23    30.08R
HUTCHINSON     SUNNY     64  35  34 N16G22    30.17R
MEDICINE LODGE   N/A     66  35  31 N18G28    30.17R
NEWTON         SUNNY     61  36  39 N20       30.16R
PARSONS        LGT RAIN  63  43  48 W17G24    30.08S
WICHITA INTL   SUNNY     64  36  35 N20G25    30.14R
WICHITA JABRA  SUNNY     64  36  35 N22G31    30.13R
WINFIELD       SUNNY     64  40  41 N16       30.13S
$$

KSZ007>012-019>026-033>040-048>060-102>105-301700-
NORTHEAST KANSAS

CITY           SKY/WX    TMP DP  RH WIND       PRES   REMARKS
CONCORDIA      SUNNY     62  40  44 NW16      30.14S
EMPORIA        SUNNY     65  38  36 N20G28    30.07R
LAWRENCE       SUNNY     61  42  49 NW17      30.03F
MANHATTAN      SUNNY     62  38  40 N14G25    30.10R
OLATHE IND     MOSUNNY   59  42  53 NW12      30.03F
OLATHE EXE     MOSUNNY   58  43  57 W6        30.02S
SALINA         SUNNY     62  38  40 NW12      30.16R
TOPEKA BILLARD SUNNY     65  42  43 NW13      30.05S
TOPEKA FORBES  LGT RAIN  62  41  46 NW15      30.05R
$$



USA.gov is the U.S. government's official web portal to all federal, state and local government web resources and services.